Dewpoint
19 19 19 19 19 18 18 18 19 18 18 18 18 18 19 20 20 20 22 21 21 20 20 21 21 22 24 28 30 31 31 31 32 32 32 32 32 31 31 31 31 31 32 32 32 32 32 33 33 33 33 34 34 34 35 35 35 36 36 37 37 38 39 39 39 39 40 40 40 40 40 40 41 41 41 41 41 41 41 41 42 42 42 43 43 43
19 19 19 19 18 18 18 19 19 18 18 18 18 18 19 18 18 19 19 20 21 21 21 21 22 22 22 26 29 31 31 31 31 31 31 31 31 31 31 31 31 31 31 31 32 32 32 33 33 33 33 34 34 34 34 35 35 36 36 36 37 37 38 38 38 39 39 39 39 39 39 39 39 39 39 40 40 40 41 41 41 42 42 42 42 43
18 18 18 19 19 18 18 19 19 19 19 19 19 19 19 19 19 19 20 20 21 22 22 23 24 24 23 25 28 30 30 30 30 30 30 30 30 30 30 30 30 31 31 31 32 32 32 33 33 33 33 34 34 34 34 35 35 35 36 36 36 36 37 37 37 37 38 38 38 38 39 39 39 39 39 39 40 40 41 41 41 41 41 42 42 42
18 18 18 19 19 19 19 19 19 19 20 19 20 20 19 19 20 21 21 22 23 24 25 24 24 23 22 23 25 27 29 29 29 29 29 29 30 30 30 30 30 31 31 31 32 32 32 33 33 33 33 34 34 34 34 34 35 35 35 35 35 35 36 36 36 36 37 37 37 38 38 38 38 39 39 39 40 40 41 41 41 41 41 41 41 42
18 18 19 20 20 20 20 19 19 19 20 20 20 19 20 21 22 23 25 25 25 25 24 23 22 21 20 20 22 25 27 28 28 28 29 29 29 29 30 30 30 30 31 31 32 32 32 33 33 33 33 33 34 34 34 34 34 34 34 34 34 35 35 35 35 36 36 36 36 36 37 37 37 38 38 39 39 39 39 39 39 40 40 40 40 41
19 20 21 21 20 19 19 19 20 20 19 20 20 21 21 23 25 26 26 26 25 24 22 21 19 18 17 18 21 24 26 27 27 28 28 28 29 29 29 30 30 30 31 31 32 32 32 32 33 33 33 33 33 33 33 33 33 34 34 34 34 34 34 34 34 34 35 35 35 35 35 35 36 36 36 37 37 38 38 38 39 39 39 39 39 40
20 21 21 20 19 19 19 19 19 20 20 20 21 23 25 27 27 26 25 24 22 21 20 19 18 16 16 17 20 22 23 25 25 26 27 28 28 29 29 30 30 30 31 31 31 32 32 32 32 32 32 32 32 33 33 33 33 33 33 33 33 33 34 34 34 34 34 34 34 34 34 34 35 35 35 36 36 36 37 37 37 38 38 38 39 39
20 20 20 19 19 19 19 19 20 20 21 22 24 26 28 27 25 24 22 21 20 18 17 17 16 16 15 15 17 19 19 20 21 21 23 25 26 27 29 30 30 30 31 31 31 31 31 31 31 32 32 32 32 32 32 32 32 32 32 32 32 33 33 33 33 33 33 34 34 34 34 34 34 34 35 35 35 36 36 36 37 37 38 38 38 39
19 19 18 18 18 19 19 20 21 22 24 26 27 28 27 24 21 20 19 18 18 16 16 15 15 15 15 15 15 16 18 19 18 19 20 21 22 25 27 29 30 30 30 30 30 30 30 31 31 31 31 31 31 32 32 32 32 32 32 32 32 32 32 32 33 33 33 33 33 33 34 34 34 34 34 34 35 35 35 36 36 37 38 38 39 39
19 19 19 19 20 21 21 21 22 25 28 29 28 26 23 20 17 16 16 16 16 16 16 16 16 15 15 15 15 16 18 20 22 23 25 24 25 26 27 28 28 29 30 30 30 30 30 30 30 30 30 31 31 31 31 31 31 31 31 31 31 31 31 32 32 32 32 33 33 33 33 34 34 34 34 34 35 35 35 36 36 37 37 38 38 39
20 20 20 20 21 22 23 24 26 29 30 27 25 21 18 17 16 16 15 15 15 16 16 16 16 16 16 16 16 16 18 19 21 23 25 26 27 28 28 27 27 27 28 29 29 29 29 29 30 30 30 30 30 30 30 30 30 30 30 30 30 30 31 31 31 31 32 32 33 33 34 34 34 34 35 35 35 35 35 36 36 36 37 37 38 39
21 21 21 21 22 23 25 28 29 29 25 21 19 17 16 17 17 17 16 15 15 15 16 16 16 17 17 17 17 17 18 18 19 20 22 23 24 25 24 24 24 25 25 26 27 28 28 29 29 29 29 29 30 30 30 29 29 30 30 30 30 30 30 30 31 31 32 33 33 34 34 34 35 35 35 36 36 36 36 36 36 37 37 37 38 38
23 23 22 23 24 25 27 27 25 22 19 18 17 16 16 17 17 17 17 16 16 16 16 16 17 18 19 19 19 19 19 19 20 20 21 21 21 20 20 19 20 20 21 21 22 23 26 27 28 28 29 28 29 29 29 29 29 29 29 29 30 30 30 30 31 32 32 33 33 34 34 34 35 35 36 36 36 36 36 36 36 37 37 37 37 38
24 24 25 25 26 27 26 23 21 19 18 17 18 18 17 17 17 17 17 16 16 16 16 17 17 18 19 19 20 20 20 20 20 20 20 19 19 19 19 18 18 19 19 19 20 21 25 25 25 25 27 27 27 28 28 28 28 29 29 30 30 30 30 31 31 32 32 33 33 34 34 34 35 35 36 36 36 36 36 36 36 36 36 37 37 37
26 27 27 27 26 24 22 20 19 18 19 19 19 19 18 18 17 16 16 16 16 16 17 18 19 19 19 20 20 21 21 21 20 19 18 18 19 19 20 19 19 19 19 19 20 21 24 24 23 22 23 24 25 26 26 27 28 29 29 30 30 30 31 31 31 32 32 33 33 33 34 34 34 35 35 35 36 36 36 36 36 36 36 36 36 36
28 28 26 25 23 21 20 20 20 20 20 20 20 19 18 17 16 16 16 16 17 18 19 19 20 20 19 20 21 21 21 21 19 18 17 17 18 19 20 20 19 19 20 20 20 21 21 21 21 21 21 23 25 27 27 28 29 29 30 30 30 30 30 31 31 31 32 32 32 33 33 34 34 34 34 35 35 35 35 35 36 36 36 36 36 36
28 26 25 24 22 21 21 21 21 21 21 20 19 18 17 16 16 17 18 18 19 20 20 20 20 20 20 20 21 22 21 20 19 19 18 18 19 20 21 20 20 20 20 20 20 20 20 20 20 21 21 24 26 27 28 28 29 29 30 30 30 30 30 30 31 31 31 32 32 32 33 33 34 34 34 34 35 35 35 35 36 36 36 36 36 36
26 25 24 24 23 23 22 22 22 21 21 19 18 17 17 18 18 19 19 20 20 20 21 21 21 21 21 21 21 21 20 20 20 20 19 19 19 20 21 21 20 20 20 20 20 20 20 20 20 21 21 25 27 28 28 29 29 29 30 30 30 30 30 30 31 31 31 32 32 32 33 33 33 34 34 34 34 35 35 35 36 36 36 37 37 37
26 25 25 25 24 23 23 22 21 20 18 17 17 18 19 19 20 20 20 20 21 21 21 21 22 22 23 22 21 21 20 20 20 20 20 19 19 20 20 20 20 20 20 20 20 20 20 20 22 24 26 27 28 28 28 28 29 29 29 30 30 30 30 30 31 31 31 32 32 32 32 33 33 33 34 34 34 34 35 35 35 36 36 37 37 37
25 25 25 24 23 22 21 20 19 19 18 19 20 20 20 20 20 20 20 21 21 22 23 24 24 24 23 21 20 20 20 21 21 21 20 20 20 20 20 20 20 20 19 19 19 19 19 20 21 23 25 26 27 27 28 28 29 29 29 30 30 30 30 30 31 31 31 31 32 32 32 33 33 33 33 33 34 34 34 35 35 36 36 36 37 37
22 21 21 20 20 20 19 19 19 20 21 23 22 21 21 21 21 21 21 22 24 25 27 26 25 23 21 20 20 20 21 21 21 21 21 20 20 20 20 20 19 19 18 18 19 20 20 20 20 21 23 25 27 27 28 28 29 29 29 29 30 30 30 30 30 31 31 31 31 32 32 32 32 33 33 33 33 34 34 34 35 35 36 36 36 37
20 20 19 20 20 20 21 20 21 23 25 25 24 22 22 22 23 23 24 26 26 26 25 24 22 21 21 21 20 21 21 21 21 21 21 21 20 19 19 19 19 19 18 18 19 19 19 19 19 20 23 25 27 27 28 28 28 29 29 29 30 30 30 30 30 30 31 31 31 32 32 32 32 32 33 33 33 33 34 34 34 35 35 35 36 36
21 20 20 21 21 22 23 23 24 25 25 25 25 25 25 26 26 27 28 28 26 25 23 22 22 21 21 21 21 21 21 21 21 21 21 20 19 18 18 19 19 18 18 18 18 18 18 18 18 20 23 25 27 27 28 28 28 29 29 29 29 30 30 30 30 30 30 31 31 31 32 32 32 32 32 33 33 33 33 34 34 34 34 34 35 35
21 21 22 23 24 25 25 25 25 26 27 28 28 29 30 30 30 30 28 26 25 23 22 22 21 21 21 21 21 20 20 20 20 20 19 19 18 18 18 18 18 18 17 17 17 18 18 18 18 19 21 24 26 27 27 28 28 28 29 29 29 29 29 30 30 30 30 30 31 31 31 32 32 32 32 33 33 33 33 34 34 34 34 34 34 34
22 23 24 25 27 28 27 27 28 30 31 32 32 32 30 29 28 26 24 23 23 22 21 21 21 20 19 20 19 18 18 19 20 19 19 18 18 18 18 18 17 17 17 17 18 18 18 18 18 19 20 22 25 26 27 27 28 28 28 28 29 29 29 29 30 30 30 30 30 31 31 31 32 32 32 32 33 33 33 33 34 34 34 34 34 34
25 25 25 26 28 30 30 30 32 33 34 33 31 28 25 24 24 24 23 23 22 21 21 21 20 19 18 18 18 17 18 19 19 19 19 18 18 18 18 18 17 17 17 18 19 20 19 18 18 19 19 21 23 25 26 27 27 27 28 28 28 29 29 29 29 30 30 30 30 30 31 31 31 32 32 32 32 33 33 33 33 33 34 34 34 34
27 27 28 29 30 30 31 32 33 32 31 30 28 25 24 24 24 23 22 22 21 21 21 20 19 18 18 18 17 18 18 19 19 19 19 19 18 18 18 18 18 17 17 18 19 20 21 20 20 19 19 20 21 23 25 26 26 27 27 28 28 28 29 29 29 29 30 30 30 30 30 31 31 31 32 32 32 32 33 33 33 33 33 33 33 33
27 28 29 30 30 31 31 31 30 29 28 27 27 27 25 24 23 23 22 22 21 21 21 20 19 18 18 17 17 18 18 18 19 19 19 19 18 18 18 18 18 18 18 18 20 21 22 21 21 20 19 19 20 21 23 25 26 26 27 27 28 28 28 28 29 29 29 29 30 30 30 30 31 31 31 32 32 32 32 33 33 33 33 32 32 32
28 29 30 30 30 29 28 27 26 26 26 26 26 26 25 24 23 22 22 22 21 21 21 20 20 19 18 18 18 18 18 18 18 19 19 18 18 18 19 18 18 19 19 19 20 20 20 20 20 19 19 19 20 20 21 24 25 25 26 27 27 27 27 28 28 28 29 29 29 30 30 30 30 31 31 31 31 32 32 32 32 32 31 31 31 31
27 27 27 26 25 25 24 23 23 25 25 25 25 25 25 23 22 22 21 21 21 21 20 20 20 20 19 19 18 17 16 17 18 19 19 19 18 18 19 19 19 19 20 20 19 18 18 18 18 19 18 20 20 20 21 22 22 23 23 25 25 26 27 27 27 28 28 29 29 29 30 30 30 30 30 31 31 31 32 32 32 31 30 30 30 31
25 23 22 21 21 21 21 21 21 22 23 24 24 24 23 22 21 21 21 21 21 21 20 20 20 20 20 19 18 16 16 16 18 19 20 19 19 19 19 20 20 20 21 20 19 18 16 16 17 18 19 20 21 21 21 21 21 21 21 22 23 24 26 26 27 27 28 28 28 29 29 29 30 30 30 30 31 31 31 32 31 31 30 30 30 30
21 20 19 19 19 19 20 20 20 20 21 21 21 21 22 21 21 21 21 21 21 20 20 20 20 20 20 20 19 17 16 17 19 21 21 20 20 20 20 20 20 21 21 21 20 19 17 17 17 18 19 20 20 21 21 21 21 21 21 21 22 23 25 26 26 26 26 27 28 28 29 29 29 30 30 30 30 31 31 31 31 31 30 30 30 30
20 19 19 19 19 19 19 19 19 19 19 19 20 20 21 21 21 21 21 20 20 20 20 20 20 20 20 20 19 19 18 18 20 21 22 21 21 21 21 21 21 21 21 21 21 20 19 19 19 19 19 20 20 20 21 21 22 22 22 21 21 21 23 25 25 25 25 26 27 27 28 28 29 29 30 30 30 30 31 31 31 31 30 30 30 30
19 19 19 19 19 19 19 19 19 19 19 19 19 19 20 20 20 20 21 20 20 20 20 20 20 20 20 19 19 19 18 18 20 22 23 22 21 21 21 21 21 21 21 20 20 20 20 19 19 19 19 19 20 20 20 21 21 22 21 21 21 21 22 23 23 23 24 25 25 25 26 26 27 28 29 29 30 30 30 31 31 31 31 30 30 30
18 19 19 18 18 18 18 18 19 19 19 18 19 19 19 19 19 19 20 20 20 20 20 20 20 20 20 20 19 19 18 18 20 22 23 23 23 22 22 21 21 21 21 21 20 20 20 20 20 20 19 19 19 20 20 20 21 21 21 21 21 21 21 22 23 23 23 23 23 23 24 24 25 26 27 28 29 30 30 31 31 31 32 32 31 31
18 18 18 18 18 18 17 18 18 18 18 17 18 18 18 18 18 19 19 20 20 20 21 21 21 21 21 21 21 20 20 20 21 23 24 24 24 23 22 22 22 22 21 21 21 21 20 20 20 21 20 19 19 19 19 20 20 21 21 21 22 22 22 23 23 23 23 23 23 23 23 24 24 25 25 28 29 30 30 30 31 31 31 32 32 32
18 18 18 18 17 17 17 17 17 17 17 17 17 17 18 18 18 18 18 20 21 21 21 21 21 22 22 22 22 22 22 22 22 23 25 25 25 24 24 23 23 23 23 22 22 21 21 21 20 20 20 19 18 18 19 20 20 21 21 21 22 22 22 23 23 23 23 24 24 24 24 24 25 25 26 28 29 29 30 30 30 31 31 31 32 32
18 18 18 18 17 17 17 17 17 17 17 17 17 17 18 18 18 18 19 19 20 21 21 21 21 21 23 24 24 24 24 23 24 24 25 26 26 25 25 24 24 24 24 24 23 23 22 21 20 19 19 18 19 20 20 20 20 21 21 21 22 22 23 23 24 24 24 24 24 25 25 25 25 25 25 26 26 26 26 27 28 30 31 31 31 32
18 18 18 18 18 18 17 17 17 17 17 17 18 18 18 19 19 19 19 19 20 20 21 20 20 21 22 24 25 25 25 25 26 26 27 26 26 25 25 24 24 24 24 24 24 24 23 22 21 20 19 19 20 20 21 21 21 21 21 21 22 22 23 23 24 24 24 24 24 25 25 25 24 24 24 25 25 25 25 25 27 28 29 29 29 30
19 19 19 19 19 18 17 17 17 17 17 18 19 19 19 19 19 19 19 19 19 20 20 21 21 21 22 23 23 24 25 25 26 26 26 26 26 25 24 24 23 23 24 24 24 24 24 23 22 21 21 21 21 21 21 21 21 21 22 22 22 22 23 23 23 24 24 23 24 24 24 24 24 24 24 25 25 25 25 25 26 27 28 28 28 28
19 19 19 18 18 18 18 18 18 18 18 18 19 19 19 19 19 18 18 19 19 20 20 21 21 21 21 22 22 22 22 24 24 24 25 25 25 25 24 24 24 24 24 24 24 24 24 24 23 22 22 22 22 22 22 22 22 23 24 22 22 22 23 24 24 24 24 24 23 23 24 24 24 24 24 25 25 25 26 26 27 27 28 28 28 28
20 19 18 17 17 17 17 17 18 19 19 19 18 18 18 18 18 18 18 19 19 20 20 20 20 20 20 21 21 21 21 22 23 24 24 24 24 25 25 24 24 24 24 24 24 24 24 24 24 24 23 23 22 22 21 22 22 23 23 23 23 23 24 24 24 23 23 23 23 23 25 24 24 24 24 25 25 26 27 27 28 29 29 29 29 29
19 18 18 18 17 18 18 19 19 19 19 18 18 18 18 18 19 19 19 19 19 20 20 20 20 20 20 20 20 20 21 21 22 22 23 23 23 24 24 24 24 24 24 24 24 24 24 24 24 24 23 23 23 23 22 22 22 23 23 23 23 23 22 22 22 23 23 23 23 24 24 24 24 24 24 25 25 26 27 28 29 30 30 29 29 29
19 19 19 19 19 19 20 19 19 18 18 18 18 18 18 19 19 20 20 20 20 20 20 20 20 20 20 20 19 19 19 20 21 21 22 23 24 25 25 25 24 24 24 24 24 23 23 23 23 23 23 23 23 23 23 22 22 22 23 23 24 24 23 23 23 23 23 24 24 24 24 24 24 24 25 25 25 26 27 27 28 28 29 29 29 29
19 19 19 19 19 19 19 18 18 18 18 18 18 18 18 19 19 20 19 19 19 20 20 20 20 20 19 19 18 19 19 19 20 21 21 23 25 25 25 25 24 24 24 24 24 23 23 23 23 23 23 24 24 24 23 23 23 23 24 24 24 24 24 24 24 24 23 23 23 23 24 25 25 25 25 25 25 26 26 26 27 27 28 28 29 29
20 20 19 19 19 18 19 18 18 18 18 18 18 18 18 19 19 19 19 19 19 19 20 20 20 19 19 19 18 18 18 19 19 20 20 21 22 23 23 24 24 24 24 24 24 24 24 24 24 24 24 24 24 24 24 24 23 23 23 24 24 24 24 24 24 24 23 23 24 24 25 25 25 25 25 25 25 25 25 26 26 27 28 28 28 29
19 19 19 18 18 18 18 18 18 18 18 18 18 18 18 18 18 19 19 19 19 19 20 20 20 19 19 19 19 19 19 19 19 19 20 20 21 21 22 23 24 25 24 24 24 24 24 25 25 25 24 24 23 23 23 23 23 23 23 24 24 24 24 24 24 24 24 24 24 25 25 25 25 24 24 24 24 24 25 25 26 27 27 28 28 29
19 19 18 18 18 18 18 18 17 17 17 17 17 18 18 18 19 19 19 19 19 19 20 19 19 19 19 19 19 19 19 19 20 20 20 21 21 22 22 23 23 24 25 25 25 25 25 25 26 25 25 24 24 23 23 23 24 24 24 24 24 24 24 24 24 24 25 25 25 26 25 25 24 24 24 24 24 24 24 24 25 26 27 28 28 29
19 18 18 18 18 18 17 17 17 17 17 17 17 17 18 19 20 20 19 19 19 19 19 19 19 19 19 19 19 20 20 20 20 20 20 21 21 22 22 23 23 23 23 24 24 24 24 25 25 26 25 25 25 25 24 24 25 25 25 25 25 25 25 24 24 24 24 25 25 26 26 25 25 25 25 24 24 23 23 23 24 25 26 28 29 29
18 18 18 18 18 18 17 17 17 17 17 17 18 18 18 18 18 19 19 19 19 19 19 19 19 19 19 19 19 19 20 20 20 20 20 21 21 22 22 22 23 23 22 22 22 22 22 23 24 25 26 27 27 26 25 25 25 25 25 25 25 24 24 24 24 24 24 24 25 25 26 25 25 25 25 24 23 23 23 23 24 25 26 27 28 29
18 18 18 18 18 18 18 18 18 18 18 18 18 18 18 18 18 18 18 19 19 19 19 19 19 19 19 19 19 20 20 20 20 20 21 21 21 22 22 22 22 22 22 21 21 21 21 21 21 22 23 25 27 27 25 25 25 24 24 23 23 23 23 23 23 24 24 24 25 25 25 25 25 24 24 24 23 23 23 22 23 24 25 27 28 28